DMSP 5D-2 F13 DEB, 40399

Orbit data source: Space-Track

DMSP 5D-2 F13 DEB, 40399 is space debris in SSO originally from a launch on Fri, 24 Mar 1995 UTC launched from the Air Force Western Test Range (AFWTR). Debris objects in space refer to the collection of defunct objects orbiting the Earth. Examples of debris include non-operational satellites, rocket bodies, and fragments generated from explosions, collisions, or faulty payload assembly.

Loading next visibility...
Identifier
40399, 1995-015L
Orbit
SSO
Country
Flag of USUS
Related business
Manufacturer
Unknown
Mission
Spacecraft
Bus & Motor
Unknown
Mass
Unknown
Launch date (UTC)
1995-03-24 (31 years ago)
Launch vehicle
Unknown
Launch site
Air Force Western Test Range (AFWTR)
Object type
Payload
Rocket body
Debris
Shape & HBR
Unknown shape, 0.1 m
Radar Cross Section
Medium (>0.1 m² and <1 m²)

Expand to show TLE details & history
Last TLE update: 10 hours ago

TLE from 10 hours ago
0 DMSP 5D-2 F13 DEB
1 40399U 95015L   26237.86719579  .00002259  00000-0  83577-3 0  9998
2 40399  98.6961 268.6572 0010878 112.1079 248.1261 14.33316488596439
Epoch: 2026-08-25T20:48Z
TLE epoch observation values (Epoch: 2026-08-25T20:48:45.716Z)
Latitude
0.00001°
Longitude
-17.66167°
Altitude
786.509 km
Speed
7.459 km/s
True Right ascension
17h 54m 37s
True Declination
0° 00' 00"
Sunlit
Object was in daylight at epoch
Visualization orbit readout
Latitude
Unknown
Longitude
Unknown
Altitude
Unknown
Speed
Unknown
Apparent Right ascension
Unknown
Apparent Declination
Unknown
Sunlit
N/A
Visualization observer readout
Local Sidereal Time
22:15:40
Azimuth
Unknown
Elevation
Unknown
Doppler factor
Unknown
Orbital elements
Apogee altitude
785.591 km
Perigee altitude
770.022 km
Semi-major axis
7,155.944 km
Eccentricity
0.00109
Inclination
98.6961°
RAAN
268.6572°
Arg. of periapsis
112.1079°
True anomaly
248.01048°
Mean anomaly
248.1261°
Eccentric anomaly
248.06828°
Mean motion
3.58544 °/min
Orbital period
100.41 mins
BSTAR
0.00083577
Loading maneuver chart data...
Computing Atmospheric mass density...

Documentation

Showing up to 5 results
|